Regional Weather Roundup
Issued by NWS

Home | Current Version | Previous Version | Text Only | Print | Product List | Glossary Off
Versions: 1 2 3 4 5 6 7 8 9 10 11 12 13 14 15 16 17 18 19 20 21 22 23 24 25 26 27 28 29 30 31 32 33 34 35 36 37 38 39 40 41 42 43 44 45 46 47 48 49 50

000
ASUS43 KBIS 052002
RWRND

NORTH DAKOTA REGIONAL WEATHER ROUNDUP
NATIONAL WEATHER SERVICE BISMARCK ND
300 PM CDT THU MAY 05 2016

NOTE: "FAIR" INDICATES FEW OR NO CLOUDS BELOW 12,000 FEET WITH NO
SIGNIFICANT WEATHER AND/OR OBSTRUCTIONS TO VISIBILITY.


NDZ001>003-009>011-017-052100-
NORTHWEST NORTH DAKOTA

CITY           SKY/WX    TMP DP  RH WIND       PRES   REMARKS
WILLISTON      SUNNY     89  38  16 SW10      29.79F
MINOT          SUNNY     93  37  14 VRB7      29.78S
MINOT AFB      SUNNY     89  38  16 W15G21    29.76F
$$

NDZ018>021-031>035-040>046-052100-
SOUTHWEST NORTH DAKOTA

CITY           SKY/WX    TMP DP  RH WIND       PRES   REMARKS
BISMARCK       SUNNY     86  47  25 S7        29.84F
DICKINSON      SUNNY     84  36  18 S8G16     29.84F
GARRISON         N/A     89  39  17 SW14      29.81F
HETTINGER ARPT SUNNY     83  38  20 SW8       29.89F
$$

NDZ004>008-012>016-024-026-027-054-052100-
NORTHEAST NORTH DAKOTA

CITY           SKY/WX    TMP DP  RH WIND       PRES   REMARKS
GRAND FORKS    MOSUNNY   91  39  16 W15G28    29.76F
GRND FRKS AFB  SUNNY     91  37  15 W14G26    29.77F
DEVILS LAKE    SUNNY     87  42  20 SW14      29.80F
$$

NDZ022-023-025-028>030-036>039-047>053-052100-
SOUTHEAST NORTH DAKOTA

CITY           SKY/WX    TMP DP  RH WIND       PRES   REMARKS
FARGO          SUNNY     90  37  15 SW21G29   29.81F
JAMESTOWN      SUNNY     86  38  18 SW16      29.83F
$$





USA.gov is the U.S. government's official web portal to all federal, state and local government web resources and services.